User: anonymous   Login
Location: Caltech
(34.1382°N, 118.1253°W)
Time: 23:41:09
(UTC-07:00)
Language:

ALOS - Orbit

View from above orbital plane
View from above orbital plane
View from above satellite
View from above satellite

Ground track
Ground track

The orbit data is extracted from the following two-line orbital elements,

1 28931U 06002A   18116.71067618  .00000146  00000-0  37409-4 0  9992
2 28931  97.8231 132.9840 0002517  67.1315 293.0141 14.62481965653280
Epoch (UTC): 26 April 2018 17:03:22
Eccentricity: 0.0002517
inclination: 97.8231°
perigee height: 683 km
apogee height: 687 km
right ascension of ascending node: 132.9840°
argument of perigee: 67.1315°
revolutions per day: 14.62481965
mean anomaly at epoch: 293.0141°
orbit number at epoch: 65328

The dashed part of the orbit path shows where the satellite is in the earth's shadow,  

DLR